CDT,Max TemperatureF,Mean TemperatureF,Min TemperatureF,Max Dew PointF,MeanDew PointF,Min DewpointF,Max Humidity, Mean Humidity, Min Humidity, Max Sea Level PressureIn, Mean Sea Level PressureIn, Min Sea Level PressureIn, Max VisibilityMiles, Mean VisibilityMiles, Min VisibilityMiles, Max Wind SpeedMPH, Mean Wind SpeedMPH, Max Gust SpeedMPH,PrecipitationIn, CloudCover, Events, WindDirDegrees
2013-7-1,82,70,57,57,50,43,82,52,26,30.18,30.15,30.12,10,10,10,13,3,18,0.00,1,,35
2013-7-2,82,70,57,61,50,37,88,53,21,30.15,30.11,30.06,10,10,7,15,3,21,0.00,1,,16
2013-7-3,80,70,59,57,53,43,88,55,26,30.10,30.04,29.97,10,10,10,8,3,,0.00,1,,139
2013-7-4,86,73,60,61,53,46,88,53,25,30.01,29.98,29.93,10,10,10,17,7,24,0.00,1,,176
2013-7-5,87,74,62,59,56,54,77,51,33,29.97,29.93,29.88,10,10,10,20,10,26,0.00,1,,168
2013-7-6,89,79,69,61,58,54,68,49,29,29.94,29.90,29.85,10,10,10,21,11,26,0.00,0,,166
2013-7-7,89,81,73,68,63,61,83,54,40,29.94,29.88,29.85,10,10,10,15,8,24,0.00,3,,197
2013-7-8,89,80,71,70,67,59,88,67,36,30.00,29.96,29.90,10,10,5,8,3,,0.26,1,Rain,355
2013-7-9,89,81,73,72,68,63,94,66,40,29.96,29.91,29.86,10,9,3,15,6,28,0.15,2,Rain,248
2013-7-10,80,71,62,66,55,48,88,58,34,30.09,30.04,29.96,10,10,10,17,10,26,0.00,0,,339
2013-7-11,82,68,55,61,53,46,94,58,28,30.14,30.09,30.03,10,8,0,13,3,18,0.00,0,Fog,139
2013-7-12,86,74,62,57,55,54,77,52,33,30.07,30.03,29.98,10,10,10,21,10,28,0.00,0,,155
2013-7-13,78,71,64,63,57,50,88,62,46,30.13,30.04,29.99,10,10,7,20,10,25,0.13,2,Rain,141
2013-7-14,84,74,64,63,61,59,88,65,42,30.21,30.14,30.08,10,10,10,16,8,23,0.00,0,,144
2013-7-15,87,74,62,70,64,59,94,69,46,30.27,30.22,30.17,10,9,2,10,2,,0.00,2,,138
2013-7-16,91,81,71,70,67,61,94,66,38,30.27,30.24,30.22,10,10,5,8,4,,0.00,1,,190
2013-7-17,93,80,68,73,67,59,94,65,34,30.31,30.26,30.18,10,9,1,13,2,26,0.05,1,Rain,199
2013-7-18,91,80,69,70,65,59,94,60,34,30.18,30.05,29.89,10,10,7,20,6,24,0.00,1,,209
2013-7-19,87,76,64,70,62,52,88,55,35,29.95,29.88,29.82,10,10,7,18,9,30,0.16,1,Rain,290
2013-7-20,86,72,59,64,58,52,94,63,31,29.99,29.94,29.90,10,10,5,8,2,,0.00,1,,290
2013-7-21,86,75,64,68,62,57,94,70,40,29.95,29.88,29.82,10,10,2,12,2,16,0.00,2,,152
2013-7-22,95,80,64,72,63,55,94,68,34,29.87,29.78,29.70,10,8,1,17,7,26,0.07,2,Rain,198
2013-7-23,77,68,59,57,52,48,88,59,36,30.03,29.96,29.86,10,10,10,13,7,18,0.00,1,,360
2013-7-24,78,64,51,57,52,46,94,65,34,30.10,30.05,30.01,10,10,0,7,1,,0.00,3,Fog,191
2013-7-25,87,71,55,64,58,52,94,73,31,30.04,30.00,29.93,10,9,1,15,5,24,1.13,3,Rain,186
2013-7-26,73,66,59,63,54,46,94,66,43,30.08,30.01,29.94,10,10,3,21,9,28,0.00,6,,310
2013-7-27,69,60,51,50,44,36,88,59,28,30.09,30.04,29.97,10,10,10,17,8,26,0.00,5,,322
2013-7-28,71,60,50,52,45,41,94,59,33,30.08,30.02,29.97,10,10,10,12,6,22,0.00,1,,325
2013-7-29,77,62,48,55,49,45,94,62,32,30.15,30.11,30.08,10,9,0,13,3,16,0.00,2,Fog,149
2013-7-30,73,68,62,64,60,54,88,74,65,30.11,30.09,30.07,10,10,7,8,3,,0.00,8,,133
2013-7-31,80,70,60,64,59,50,94,72,36,30.12,30.08,30.04,10,7,0,14,3,26,0.00,4,Fog-Rain,293